Location: Newbury Center
(41.4634°N, 81.2443°W)
Time: 06:04:09
(UTC+00:00)

Daily predictions for brighter satellites

Satellite Brightness Start Highest point End
(mag) Time Altitude Azimuth Time Altitude Azimuth Time Altitude Azimuth
Cosmos 1733 2.1 12:00:34 10° S 12:02:34 62° E 12:04:35 10° NNE
COSMO-SKYMED 1 4.1 12:02:47 10° SW 12:05:16 16° W 12:07:47 10° NW
Cosmos 1743 3.3 12:03:16 10° S 12:06:25 51° E 12:09:34 10° NNE
Cosmos-2242 3.1 12:03:08 10° NNW 12:07:15 52° W 12:11:20 10° S
NOSS 2-1 (D) 4.2 12:05:06 10° NW 12:08:44 41° WSW 12:13:36 10° S
BREEZE-M DEB (TANK) 4.3 12:08:10 10° WNW 12:10:13 17° NNW 12:11:53 10° NNE
Cosmos 2084 4.3 22:19:43 10° SW 22:23:47 46° NW 22:27:49 10° NNE
NOSS 2-2 (C) 2.9 22:24:55 10° SW 22:28:28 76° NW 22:31:30 10° NNE
Cosmos 2098 Rocket 3.8 22:25:31 10° SE 22:28:33 25° E 22:32:01 10° NNE
NOSS 8 (F) 4.3 22:25:36 10° NNW 22:28:39 76° NE 22:32:23 10° SE
Cosmos 1758 Rocket 4.4 22:25:06 10° NNE 22:28:52 29° ENE 22:32:36 10° SE
MOS 1 Rocket 4.2 22:29:13 10° SE 22:33:17 29° ENE 22:37:34 10° N
Cosmos 405 Rocket 3.0 22:30:22 10° N 22:33:21 32° ENE 22:36:17 10° SE
Meteor 1-27 4.4 22:28:03 10° S 22:33:53 89° E 22:39:43 10° N
Intercosmos 24 4.1 22:31:06 10° N 22:34:54 42° ENE 22:38:16 10° SSE
IRS-1C 4.3 22:32:52 10° SE 22:37:57 48° ENE 22:43:03 10° N
ARIANE 5 R/B 2.7 22:34:30 10° SE 22:39:18 49° ENE 22:44:12 10° N
UNK 3.7 22:36:16 10° NNE 22:40:53 79° ESE 22:45:26 10° S
Cosmos 2228 3.0 22:37:34 10° S 22:41:47 85° W 22:46:03 10° N
Cosmos 2297 Rocket 3.0 22:43:02 10° N 22:47:56 29° NE 22:52:49 10° ESE
USA 276 1.5 22:47:23 10° WNW 22:48:32 33° SW 22:49:29 12° SSE
Cosmos 1733 2.5 22:47:57 11° NNE 22:49:34 25° ENE 22:51:17 10° SE
Cosmos 1356 Rocket 4.2 22:47:04 10° SSW 22:50:59 52° WNW 22:54:58 10° N
Cosmos 1461 4.3 22:48:33 10° SSE 22:51:10 18° ESE 22:52:43 14° E
Radarsat 4.5 22:47:03 10° SSE 22:52:12 75° ENE 22:57:23 10° N
Cosmos 1315 Rocket 3.9 22:50:02 10° SSW 22:53:41 43° WNW 22:57:22 10° N
BlueWalker 3 3.1 22:51:01 10° NNW 22:53:59 23° NNE 22:55:43 17° ENE
Cosmos 1626 Rocket 3.5 22:49:55 10° N 22:54:15 65° E 22:58:30 10° SSE
Cosmos 1656 3.7 22:51:04 10° SSW 22:56:37 72° ESE 23:02:16 10° NNE
ARIANE 6 FM1 Upper Stage 3.0 22:55:02 10° NW 22:58:58 65° SW 23:02:57 10° SSE
SAR-Lupe-4 3.4 22:57:47 10° SSE 23:01:20 77° ENE 23:04:54 10° N
Okean 1-7 Rocket 4.4 22:58:10 10° NNE 23:01:58 28° ENE 23:05:44 10° SE
CENTAUR R/B 3.6 22:57:45 10° WSW 23:02:54 36° NW 23:09:17 10° NNE
SAR-Lupe-3 3.8 23:02:49 19° NNE 23:04:23 50° E 23:06:52 10° S
SJ-12 3.6 23:00:49 10° SSE 23:04:34 76° ENE 23:08:21 10° N
Thor Agena Rocket 4.2 23:00:10 10° S 23:05:20 60° WSW 23:10:29 10° NNW
USA 290 4.0 23:04:29 10° N 23:05:51 17° NNE 23:05:51 17° NNE
SAR-Lupe-1 3.9 23:03:27 10° SSE 23:07:02 78° ENE 23:10:39 10° N
CZ-2D R/B 2.6 23:04:18 10° SSE 23:07:25 89° ENE 23:10:35 10° NNW
Cosmos 1544 Rocket 3.6 23:03:29 10° S 23:07:51 80° W 23:12:17 10° N
BREEZE-M DEB (TANK) 3.9 23:04:18 10° SSW 23:09:16 29° SSE 23:10:40 20° ESE
BREEZE M DEB (TANK) 1.9 23:07:15 10° WSW 23:09:55 57° NNW 23:10:38 33° NE
USA 215 4.4 23:08:02 16° NE 23:11:40 25° NNE 23:16:47 10° NW
Cosmos 1933 3.9 23:08:36 10° SSE 23:12:02 32° E 23:13:42 22° NE
Cosmos 1980 Rocket 3.9 23:10:47 10° SE 23:12:35 13° ESE 23:12:35 13° ESE
Lacrosse 5 rocket 3.1 23:15:59 10° W 23:18:50 20° NNW 23:21:08 13° NNE
Cosmos 1782 3.3 23:15:28 10° SSW 23:19:00 54° W 23:22:32 10° N
SKYMED 2 3.6 23:15:28 10° NNE 23:19:41 55° E 23:23:56 10° S
Cosmos 1743 2.1 23:18:08 10° N 23:21:24 79° E 23:24:38 10° S
Cosmos 2360 4.2 23:19:14 10° SSW 23:24:56 89° ESE 23:30:11 13° NNE
NOSS 2-2 (D) 4.2 23:22:38 10° WSW 23:25:53 34° NW 23:27:41 18° N
Cosmos 2151 2.8 23:21:53 10° N 23:26:03 72° E 23:30:10 10° SSE
Cosmos 1726 Rocket 4.2 23:22:43 10° SSE 23:26:57 37° E 23:28:32 28° NE
Cosmos 1503 Rocket 4.0 23:21:53 10° S 23:27:05 66° ESE 23:31:02 17° NNE
IRIDIUM 104 4.3 23:22:35 10° N 23:27:50 88° E 23:33:03 10° S
IRS-P3 4.1 23:22:57 10° SSE 23:28:17 86° WSW 23:33:38 10° NNW
NOSS 2-2 (E) 3.9 23:26:54 10° SW 23:30:16 40° NW 23:31:46 23° N
Cosmos 1602 Rocket 3.4 23:27:10 10° N 23:31:36 88° E 23:35:56 10° S
Cosmos 2263 Rocket 3.8 23:28:42 10° N 23:30:55 16° NNE 23:30:55 16° NNE
Cosmos 1354 Rocket 4.2 23:27:42 10° S 23:32:46 50° ESE 23:35:21 27° NE
Spot 4 Rocket 4.0 23:30:40 10° SSE 23:35:37 55° ENE 23:40:37 10° N
IRIDIUM 114 4.5 23:31:44 10° N 23:36:58 76° W 23:42:09 10° S
IRAS Rocket 4.3 23:32:07 10° SE 23:37:24 50° ENE 23:42:40 10° N
Cosmos 2227 Rocket 2.8 23:33:41 10° N 23:38:42 32° ENE 23:38:45 32° ENE
ATLAS CENTAUR R/B 2.2 23:36:06 10° NNW 23:37:43 24° N 23:37:43 24° N
CZ-4C R/B 3.2 23:33:00 10° NNW 23:39:49 48° NE 23:45:09 22° ESE
YAOGAN 1 2.4 23:38:58 10° SSE 23:43:09 60° ENE 23:47:22 10° N
PSLV R/B 4.2 23:41:13 10° SSE 23:46:32 34° NNE 23:49:03 10° N
COSMO-SKYMED 1 2.3 23:44:27 38° NNE 23:45:56 72° E 23:50:02 10° S
Cosmos 1867 4.2 23:41:23 10° NNW 23:46:12 34° NE 23:46:12 34° NE
NOSS 3-2 (C) 3.0 23:43:59 10° SW 23:48:52 82° NW 23:51:40 30° NNE
Cosmos 1777 Rocket 4.4 23:46:33 10° SSW 23:51:45 64° WNW 23:55:50 17° N
NOSS 3-2 (A) 4.5 23:47:54 10° WSW 23:52:27 33° NW 23:56:28 16° NNE
Gbstr 26 Del rocket 3.0 23:50:41 10° SW 23:54:18 52° SSE 23:54:18 52° SSE
